Regional Weather Roundup
Issued by NWS Cleveland, OH

Home | Current Version | Previous Version | Graphics & Text | Print | Product List | Glossary On
Versions: 1 2 3 4 5 6 7 8 9 10 11 12 13 14 15 16 17 18 19 20 21 22 23 24 25 26 27 28 29 30 31 32 33 34 35 36 37 38 39 40 41 42 43 44 45 46 47 48 49 50
000
ASUS41 KCLE 250510
RWRCLE
OHIO REGIONAL WEATHER ROUNDUP
NATIONAL WEATHER SERVICE WILMINGTON, OH
100 AM EDT FRI JUL 25 2014

NOTE: "FAIR" INDICATES FEW OR NO CLOUDS BELOW 12,000 FEET WITH NO
SIGNIFICANT WEATHER AND/OR OBSTRUCTIONS TO VISIBILITY.

OHZ001>008-015>018-024>027-034-035-043-044-250600-
   NORTHWEST OHIO

CITY           SKY/WX    TMP DP  RH WIND       PRES   REMARKS
DEFIANCE       CLEAR     57  53  86 CALM      30.07F
FINDLAY        CLEAR     57  52  83 S5        30.07F
TOLEDO EXPRESS CLEAR     54  53  97 CALM      30.07F
TOLEDO METCALF CLEAR     60  51  72 CALM      30.08F
LIMA           CLEAR     59  51  75 CALM      30.08F
$$

OHZ009>014-019>023-028>033-038-089-250600-
   NORTHEAST OHIO

CITY           SKY/WX    TMP DP  RH WIND       PRES   REMARKS
CLE-HOPKINS    CLEAR     56  51  84 S7        30.09F
CLE-LAKEFRONT  CLEAR     65  52  62 NE3       30.06F
CUY CO. ARPT   NOT AVBL
LORAIN-ELYRIA  CLEAR     57  51  80 CALM      30.08S
ASHTABULA      CLEAR     51  49  92 CALM      30.08S
AKRON-CANTON   CLEAR     57  49  74 CALM      30.08F
WOOSTER        CLEAR     51  48  89 W3        30.09S
MANSFIELD      CLEAR     55  50  83 CALM      30.09S
YOUNGSTOWN     CLEAR     53  50  89 CALM      30.08S
$$

OHZ042-051>053-060>062-070>072-077>081-250600-
  SOUTHWEST OHIO

CITY           SKY/WX    TMP DP  RH WIND       PRES   REMARKS
CINC-COVINGTON CLEAR     67  51  56 NE6       30.07S
CINC-LUNKEN    CLEAR     58  56  93 CALM      30.08S
HAMILTON       CLEAR     57  55  93 CALM      30.08S
DAYTON         CLEAR     60  50  69 E6        30.09F
WRIGHT-PAT AFB CLEAR     60  53  80 N2        30.08F
DAYTON GENERAL CLEAR     60  52  74 NE6       30.07F
WILMINGTON     PTCLDY    56  50  80 NE7       30.08S
$$

OHZ036-037-039>041-045>050-054>059-063>069-073>076-082>088-250600-
  CENTRAL AND SOUTHEAST OHIO

CITY           SKY/WX    TMP DP  RH WIND       PRES   REMARKS
COLUMBUS       CLEAR     63  49  60 CALM      30.07S
OSU AIRPORT    CLEAR     57  50  77 N3        30.08S
BOLTON FIELD   CLEAR     55  51  87 CALM      30.09R
RICKENBACK AFB CLEAR     63  48  57 CALM      30.07S
NEWARK         CLEAR     57  52  83 CALM      30.07S
MARION         CLEAR     55  51  86 CALM      30.09R
LANCASTER      CLEAR     56  53  90 CALM      30.08R
ZANESVILLE     CLEAR     59  50  72 NW3       30.08R
NEW PHILLY     CLEAR     54  52  93 CALM      30.08S
$$



USA.gov is the U.S. government's official web portal to all federal, state and local government web resources and services.